Location: Banksville Park
(38.5557°N, 75.1182°W)
Time: 02:22:36
(UTC+00:00)

Cosmos 44 - Pass Details

Date: 19 September 2020
Orbit: 580 x 782 km, 65.1° (Epoch: 30 October)

Event Time Altitude Azimuth Distance (km) Brightness Sun altitude
Exits shadow 08:20:07 49° 52° (NE) 795 3.9 -28.2°
Drops below altitude 10° 08:23:33 10° 35° (NE) 2,016 6.4 -27.6°
Sets 08:25:55 0° 33° (NNE) 2,961 7.4 -27.2°
